SPACEBEE-49 (47432 NORAD) Tracking and Keplerian Element Data

This shows tracking and keplerian element data for the satellite.

Feedback or suggestion? Click here.




ElementValue
Catalog47432
NameSPACEBEE-49
Epoch Orbit1353
Epoch Day105.82718381
Epoch Year2021
RAAN168.0741
Inclination97.5006
Eccentricity0.0005167
Argument of Perigee339.3675
Mean Anonmoly20.7346
Mean Motion15.11758236
Decay Rate1.994E-05
L11 47432U 21006V 21105.82718381 .00001994 00000-0 12068-3 0 9999
L22 47432 97.5006 168.0741 0005167 339.3675 20.7346 15.11758236 13534

Live tracking and technical data element details for SPACEBEE-49 (NORAD 47432). SPACEBEE-49 can be tracked NOW for your location showing map with azimuth and elevation plus other details from your city location.

Track the satellite on the map from your city or location and see movement details for azimuth, elevation, latitude, longitude, range, height, and movement on the map or in text.







IsCatalogInMostPopularTable: catalog: 47432, numindb: 16
Update: records affected: 1



GetName: 47432 SPACEBEE-49

Hit Count: updated at: Fri, 16 Apr 2021 11:01:13 GMT